{"data":{"norad_id":87737,"intl_designator":"","name":"UNKNOWN","alt_names":[],"object_type":"UNKNOWN","status":"UNKNOWN","operator":null,"country":null,"launch_date":null,"launch_site_code":null,"launch_vehicle":null,"mission":null,"orbit_class":"UNKNOWN","rcs_meters":null,"size_class":null,"mass_kg":null,"dimensions":null,"purposes":[],"wikipedia_slug":null,"has_3d_model":false,"image_url":null,"decayed_at":null,"tle_current":{"epoch":"2026-05-22T09:17:52.090080Z","epoch_age_seconds":297910,"freshness":"STALE","line1":"1 87737U          26142.38740845  .00000008  00000+0  51701-4 0  9991","line2":"2 87737  99.3533  15.5269 0133802 130.4820 230.8081 13.72367602625898","mean_motion":13.72367602,"eccentricity":0.0133802,"inclination_deg":99.3533,"raan_deg":15.5269,"arg_perigee_deg":130.482,"mean_anomaly_deg":230.8081,"bstar":5.1701e-5,"rev_number":62589,"period_min":104.92815466508,"perigee_km":892.48160673957,"apogee_km":1089.6848882506,"semimajor_km":7369.2202474951,"source":"CELESTRAK","updated_at":"2026-05-25T13:38:11.678165Z"}}}